[[{"header":{"parameterUnit":"m.s-1","parameterCategory":1,"la1":30.2991,"la2":30.254,"lo1":-89.0895,"lo2":-89.0444,"dy":0.0017,"dx":0.0017,"nx":28,"ny":28,"refTime":"2023-08-30T09:00:00:Z","depth":0,"parameterNumber":2,"parameterNumberName":"U-component_of_WINDS"},"data":[0,0,0,0,0,0,0,0,0,0,0,0,0,0,0,0,0,0,0,0,0,0,0,0,0,0,0,0,0,0,0,0,0,0,0,0,0,0,0,0,0,0,0,0,0,0,0,0,0,0,0,0,0,0,0,0,0,0,0.4867,0.4866,0,0.4856,0.4856,0.4856,0.485,0.485,0.485,0.485,0.4838,0.4838,0.4838,0,0,0,0,0,0,0,0,0,0,0,0,0,0.4881,0.4881,0.4867,0.4866,0.4866,0.4856,0.4856,0.4856,0.485,0.485,0.485,0.485,0.4838,0.4838,0.4838,0,0,0,0,0,0,0,0,0,0,0,0,0,0.4873,0.4881,0.4867,0.4862,0.4862,0.4856,0.4856,0.4856,0.485,0.485,0.485,0.485,0.4838,0.4838,0.4838,0.4836,0,0,0.4836,0.4836,0,0,0,0,0,0,0,0,0.4873,0.4872,0.4863,0.4862,0.4862,0.4854,0.4857,0.4849,0.485,0.4854,0.485,0.485,0.4844,0.4843,0.4841,0.4835,0.4835,0.4836,0.4836,0.4836,0.4836,0,0,0,0,0,0,0,0.4874,0.4873,0.4862,0.4863,0.4862,0.4861,0.4859,0.4855,0.4849,0.4854,0.4853,0.4852,0.4843,0.4841,0.484,0.4835,0.4836,0.4836,0.4836,0.4835,0.4828,0.4828,0,0,0,0,0,0,0.4875,0.4873,0.4863,0.4862,0.4868,0.486,0.4859,0.4857,0.4849,0.4848,0.4852,0.4852,0.4842,0.4841,0.484,0.4838,0.4836,0.4835,0.4835,0.4828,0.4828,0.4828,0,0,0,0,0,0,0.4876,0.4874,0.4863,0.4868,0.4866,0.486,0.4858,0.4857,0.4854,0.4848,0.4847,0.4851,0.4842,0.4841,0.4837,0.4837,0.4835,0.4835,0.4828,0.4828,0.4828,0.4833,0,0,0,0,0,0,0.4876,0.4875,0.4874,0.4868,0.4866,0.486,0.4858,0.4856,0.4854,0.4853,0.4847,0.4846,0.4842,0.4838,0.4837,0.4837,0.4835,0.4828,0.4828,0.4828,0.4833,0.4833,0.4834,0,0,0,0,0,0.4877,0.4875,0.4874,0.4872,0.4865,0.486,0.4859,0.4855,0.4854,0.4853,0.4849,0.4846,0.4838,0.4838,0.4836,0.4836,0.4828,0.4828,0.4828,0.4833,0.4833,0.4834,0,0,0,0,0,0,0.4881,0.4874,0.4872,0.4869,0.4865,0.4859,0.4858,0.4856,0.4852,0.4852,0.4846,0.4845,0.4842,0.4839,0.4839,0.4835,0.4832,0.4832,0.4836,0.4837,0.4837,0.4838,0.4834,0,0,0,0,0,0.4881,0.4878,0.4873,0.487,0.4869,0.4864,0.4862,0.4859,0.4855,0.4853,0.4849,0.4845,0.4841,0.4839,0.4836,0.4833,0.4832,0.4832,0.4833,0.4833,0.4833,0.4832,0.4832,0.4829,0.4829,0.4829,0,0,0.4882,0.4878,0.4877,0.4871,0.4868,0.4865,0.4862,0.4859,0.4857,0.4852,0.4849,0.4846,0.4841,0.4838,0.4837,0.4836,0.4834,0.4833,0.4834,0.4833,0.4832,0.4832,0.4833,0.4829,0.4829,0.4829,0,0,0.4882,0.4879,0.4877,0.4874,0.487,0.4867,0.4866,0.4861,0.4859,0.4856,0.4852,0.485,0.4844,0.4841,0.4839,0.4839,0.4836,0.4839,0.484,0.484,0.484,0.484,0.484,0.4841,0.4838,0.4838,0.4838,0,0.4884,0.4879,0.4876,0.4874,0.4871,0.4868,0.4866,0.4863,0.4858,0.4856,0.4855,0.4849,0.4845,0.4842,0.4842,0.484,0.484,0.4839,0.484,0.484,0.484,0.4841,0.4841,0.4839,0.4839,0.4839,0.4839,0,0.4882,0.4879,0.4878,0.4873,0.4871,0.4869,0.4865,0.4864,0.4861,0.4859,0.4856,0.4852,0.4848,0.4847,0.4844,0.4844,0.4843,0.4841,0.4839,0.4841,0.4841,0.4841,0.4839,0.4839,0.4839,0.4839,0,0,0.4883,0.4877,0.4877,0.4875,0.4871,0.4869,0.4867,0.4863,0.4862,0.4859,0.4857,0.4853,0.4852,0.4849,0.4847,0.4846,0.4847,0.4844,0.4844,0.4845,0.4847,0.4848,0.4848,0.4846,0.4846,0.4846,0.4847,0,0.4882,0.4878,0.4876,0.4873,0.4871,0.4868,0.4866,0.4864,0.4861,0.4859,0.4857,0.4854,0.4852,0.4851,0.485,0.4847,0.4847,0.4847,0.4844,0.4844,0.4845,0.4848,0.4849,0.485,0.4847,0.4847,0.4847,0,0.488,0.4878,0.4875,0.4872,0.4871,0.4869,0.4867,0.4865,0.4862,0.486,0.4858,0.4856,0.4854,0.4853,0.485,0.485,0.4849,0.4848,0.4848,0.4847,0.4845,0.4846,0.485,0.485,0.4847,0.4847,0.4847,0,0.4881,0.4877,0.4875,0.4874,0.487,0.487,0.4868,0.4865,0.4864,0.4861,0.486,0.4858,0.4856,0.4854,0.4852,0.4851,0.485,0.4848,0.4848,0.4848,0.4847,0.4847,0.485,0.4847,0.4847,0.4847,0.4847,0,0.4881,0.4879,0.4876,0.4875,0.4873,0.4871,0.4869,0.4867,0.4865,0.4863,0.4861,0.486,0.4856,0.4855,0.4853,0.4851,0.4851,0.4849,0.4849,0.4849,0.4849,0.4848,0.4847,0.4847,0.4847,0.4847,0.4847,0,0.4881,0.4879,0.4876,0.4874,0.4873,0.4872,0.4869,0.4868,0.4867,0.4865,0.4864,0.4861,0.4859,0.4857,0.4854,0.4853,0.4851,0.485,0.4852,0.4852,0.4852,0.4852,0.4853,0.4854,0.4851,0.4851,0.4851,0,0.488,0.4879,0.4876,0.4875,0.4874,0.4872,0.4871,0.4869,0.4868,0.4865,0.4865,0.4863,0.4861,0.4858,0.4856,0.4854,0.4853,0.4854,0.4852,0.4853,0.4853,0.4852,0.4852,0.4853,0.4853,0.4854,0.4854,0,0.4879,0.4879,0.4877,0.4875,0.4874,0.4873,0.4871,0.487,0.4868,0.4867,0.4865,0.4864,0.4862,0.486,0.4858,0.4856,0.4854,0.4854,0.4854,0.4854,0.4855,0.4855,0.4852,0.4854,0.4854,0.4854,0.4854,0.4854,0.4879,0.4878,0.4876,0.4875,0.4874,0.4872,0.4871,0.487,0.4869,0.4867,0.4866,0.4864,0.4863,0.486,0.4859,0.4857,0.4857,0.4857,0.4856,0.4856,0.4856,0.4856,0.4857,0.4857,0.4857,0.4857,0.4857,0,0.4878,0.4877,0.4875,0.4874,0.4873,0.4872,0.4871,0.487,0.4869,0.4867,0.4866,0.4865,0.4863,0.4861,0.486,0.4859,0.4859,0.4859,0.4859,0.4858,0.4857,0.4857,0.486,0.486,0.486,0.486,0.486,0.486,0.4877,0.4875,0.4875,0.4873,0.4872,0.4871,0.487,0.4869,0.4868,0.4867,0.4866,0.4865,0.4864,0.4862,0.4861,0.4861,0.486,0.4861,0.486,0.4859,0.4858,0.4858,0.4858,0.4861,0.4861,0.4861,0.4861,0.4861]},{"header":{"parameterUnit":"m.s-1","parameterCategory":1,"la1":30.2991,"la2":30.254,"lo1":-89.0895,"lo2":-89.0444,"dy":0.0017,"dx":0.0017,"nx":28,"ny":28,"refTime":"2023-08-30T09:00:00:Z","depth":0,"parameterNumber":3,"parameterNumberName":"V-component_of_WINDS"},"data":[0,0,0,0,0,0,0,0,0,0,0,0,0,0,0,0,0,0,0,0,0,0,0,0,0,0,0,0,0,0,0,0,0,0,0,0,0,0,0,0,0,0,0,0,0,0,0,0,0,0,0,0,0,0,0,0,0,0,-5.9943,-5.9944,0,-6.0066,-6.0067,-6.0069,-6.0003,-6.0,-5.9997,-5.9994,-6.0115,-6.0121,-6.0127,0,0,0,0,0,0,0,0,0,0,0,0,0,-5.9645,-5.9651,-5.9942,-5.9944,-5.9946,-6.0066,-6.0067,-6.0069,-6.0004,-6.0,-5.9996,-5.9992,-6.0112,-6.012,-6.0127,0,0,0,0,0,0,0,0,0,0,0,0,0,-5.9772,-5.9653,-5.9942,-5.9928,-5.9928,-6.0065,-6.0067,-6.007,-6.0005,-6.0,-5.9995,-5.999,-6.011,-6.0119,-6.0128,-6.0286,0,0,-6.0157,-6.0161,0,0,0,0,0,0,0,0,-5.9765,-5.9783,-5.9928,-5.9929,-5.9929,-6.0014,-6.0007,-6.0142,-6.0006,-5.9975,-5.9994,-5.9988,-6.0085,-6.0096,-6.013,-6.0292,-6.0297,-6.0158,-6.0164,-6.0168,-6.0171,0,0,0,0,0,0,0,-5.9756,-5.9777,-5.9991,-5.993,-5.9931,-5.9913,-5.9926,-6.0032,-6.0056,-5.9978,-5.9973,-5.9989,-6.0084,-6.0121,-6.0132,-6.0299,-6.0158,-6.0166,-6.0172,-6.0176,-6.0596,-6.0601,0,0,0,0,0,0,-5.9749,-5.977,-5.9987,-5.9995,-5.9833,-5.9923,-5.9937,-5.9992,-6.0055,-6.006,-5.9993,-5.9985,-6.0107,-6.0121,-6.0136,-6.0325,-6.0168,-6.0177,-6.0182,-6.059,-6.0597,-6.0603,0,0,0,0,0,0,-5.9743,-5.9769,-5.9982,-5.9882,-5.9907,-5.9933,-5.9996,-5.9997,-6.0034,-6.0067,-6.007,-6.0027,-6.0104,-6.0123,-6.025,-6.0328,-6.0181,-6.019,-6.0584,-6.0592,-6.06,-6.0704,0,0,0,0,0,0,-5.9735,-5.9767,-5.9828,-5.9884,-5.9913,-6.0096,-6.0,-6.0003,-6.0051,-6.0042,-6.0099,-6.0104,-6.0101,-6.0236,-6.0259,-6.0339,-6.0197,-6.0577,-6.0588,-6.0597,-6.0694,-6.0715,-6.0733,0,0,0,0,0,-5.9724,-5.9851,-5.9832,-5.9858,-5.999,-6.01,-6.0117,-6.0113,-6.0058,-6.0119,-6.014,-6.0102,-6.0316,-6.0249,-6.0275,-6.0359,-6.0572,-6.0585,-6.0597,-6.0685,-6.0711,-6.0733,0,0,0,0,0,0,-5.9803,-5.9858,-5.9837,-5.9986,-6.004,-6.0089,-6.0166,-6.0141,-6.0209,-6.0197,-6.0188,-6.0202,-6.0334,-6.0358,-6.0283,-6.0514,-6.0435,-6.0453,-6.0494,-6.0518,-6.0538,-6.0529,-6.0205,0,0,0,0,0,-5.9838,-5.9924,-5.9967,-6.0095,-6.0122,-6.014,-6.0187,-6.018,-6.0234,-6.0255,-6.0286,-6.0338,-6.0417,-6.0469,-6.0543,-6.0697,-6.0708,-6.0767,-6.0787,-6.0802,-6.0818,-6.0902,-6.0928,-6.0643,-6.0643,-6.0643,0,0,-5.991,-5.9951,-6.0006,-6.0112,-6.0152,-6.024,-6.0159,-6.0255,-6.032,-6.0269,-6.0392,-6.0416,-6.0473,-6.0614,-6.0678,-6.0639,-6.0899,-6.0818,-6.0831,-6.0838,-6.0917,-6.0944,-6.0968,-6.0652,-6.065,-6.0649,0,0,-6.0088,-6.0128,-6.0239,-6.0281,-6.0344,-6.0355,-6.0382,-6.0436,-6.045,-6.0573,-6.0537,-6.0613,-6.0749,-6.0792,-6.0831,-6.1026,-6.0994,-6.105,-6.1153,-6.1234,-6.1257,-6.1277,-6.1346,-6.1371,-6.1066,-6.1066,-6.1066,0,-6.017,-6.0303,-6.0298,-6.0399,-6.0446,-6.0406,-6.0518,-6.0558,-6.0641,-6.0674,-6.063,-6.0801,-6.0836,-6.0987,-6.1035,-6.1068,-6.1097,-6.1044,-6.1254,-6.1274,-6.1292,-6.1359,-6.1385,-6.1073,-6.1072,-6.1071,-6.1071,0,-6.0401,-6.0493,-6.0575,-6.0659,-6.0715,-6.082,-6.0831,-6.0888,-6.0876,-6.0891,-6.1016,-6.1058,-6.1141,-6.1176,-6.1164,-6.1325,-6.1299,-6.1255,-6.1175,-6.1326,-6.1388,-6.1414,-6.1082,-6.108,-6.1078,-6.1076,0,0,-6.0631,-6.0712,-6.0742,-6.078,-6.0846,-6.0917,-6.102,-6.1103,-6.1152,-6.121,-6.1296,-6.1413,-6.1373,-6.1417,-6.141,-6.1482,-6.1634,-6.1428,-6.1429,-6.1465,-6.1814,-6.1847,-6.1877,-6.1613,-6.1617,-6.1621,-6.1809,0,-6.0813,-6.0996,-6.0995,-6.1163,-6.1248,-6.1212,-6.1301,-6.1351,-6.1368,-6.1442,-6.1459,-6.1543,-6.1483,-6.151,-6.158,-6.1601,-6.1703,-6.1587,-6.1691,-6.1695,-6.1679,-6.1909,-6.1945,-6.212,-6.1833,-6.1837,-6.184,0,-6.105,-6.1119,-6.1296,-6.1351,-6.1387,-6.1468,-6.1544,-6.1615,-6.167,-6.1677,-6.1729,-6.1711,-6.1814,-6.1731,-6.1873,-6.1794,-6.1836,-6.1853,-6.186,-6.1869,-6.1777,-6.1925,-6.2176,-6.2202,-6.1879,-6.1875,-6.1873,0,-6.1201,-6.1337,-6.1461,-6.1494,-6.1561,-6.1619,-6.1649,-6.17,-6.175,-6.1816,-6.1848,-6.1924,-6.1966,-6.2025,-6.2027,-6.1967,-6.2171,-6.2088,-6.2179,-6.2179,-6.2223,-6.222,-6.2484,-6.2251,-6.225,-6.225,-6.2249,0,-6.1404,-6.1514,-6.153,-6.1606,-6.1728,-6.1726,-6.1846,-6.187,-6.1916,-6.1995,-6.1967,-6.2042,-6.2041,-6.2116,-6.2119,-6.2236,-6.2255,-6.2263,-6.2262,-6.2266,-6.2265,-6.2293,-6.2281,-6.2257,-6.2255,-6.2254,-6.2252,0,-6.1593,-6.1608,-6.1741,-6.1794,-6.181,-6.1898,-6.1942,-6.2014,-6.2029,-6.213,-6.2153,-6.2176,-6.2264,-6.2272,-6.2373,-6.2375,-6.2517,-6.2502,-6.2499,-6.2497,-6.2587,-6.2578,-6.2879,-6.2918,-6.2658,-6.2661,-6.2663,0,-6.1722,-6.1806,-6.1869,-6.1922,-6.1956,-6.204,-6.2092,-6.2092,-6.2146,-6.2216,-6.228,-6.2365,-6.2434,-6.2575,-6.26,-6.2677,-6.2664,-6.2764,-6.2676,-6.2677,-6.2666,-6.2662,-6.267,-6.2781,-6.2784,-6.2787,-6.2788,0,-6.195,-6.1954,-6.203,-6.211,-6.2173,-6.2235,-6.2293,-6.2337,-6.2344,-6.2407,-6.2497,-6.2551,-6.2655,-6.274,-6.2816,-6.2845,-6.2819,-6.2816,-6.2841,-6.2846,-6.2841,-6.2845,-6.2546,-6.2809,-6.2807,-6.2806,-6.2805,-6.2804,-6.2113,-6.2187,-6.2243,-6.2329,-6.2373,-6.2429,-6.2499,-6.2524,-6.26,-6.2687,-6.2682,-6.2782,-6.2834,-6.2934,-6.2969,-6.3046,-6.3013,-6.3049,-6.3058,-6.3067,-6.3077,-6.2829,-6.306,-6.3059,-6.3059,-6.3058,-6.3058,0,-6.234,-6.2375,-6.2454,-6.2538,-6.2605,-6.2576,-6.2639,-6.2697,-6.2786,-6.2839,-6.2908,-6.3012,-6.3094,-6.3126,-6.3206,-6.3261,-6.3251,-6.3282,-6.3278,-6.3286,-6.3102,-6.3073,-6.3289,-6.3289,-6.3289,-6.3289,-6.3289,-6.3289,-6.2466,-6.2589,-6.26,-6.2744,-6.2777,-6.2877,-6.2915,-6.2966,-6.3008,-6.3126,-6.3195,-6.3216,-6.326,-6.3343,-6.3417,-6.3424,-6.3455,-6.3492,-6.3494,-6.3322,-6.3298,-6.3276,-6.3248,-6.3498,-6.3499,-6.3671,-6.3672,-6.3673]}]]